[[{"header":{"parameterUnit":"m.s-1","parameterCategory":1,"la1":30.2991,"la2":30.254,"lo1":-89.0895,"lo2":-89.0444,"dy":0.0017,"dx":0.0017,"nx":28,"ny":28,"refTime":"2025-03-24T09:00:00:Z","depth":0,"parameterNumber":2,"parameterNumberName":"U-component_of_WINDS"},"data":[0,0,0,0,0,0,0,0,0,0,0,0,0,0,0,0,0,0,0,0,0,0,0,0,0,0,0,0,0,0,0,0,0,0,0,0,0,0,0,0,0,0,0,0,0,0,0,0,0,0,0,0,0,0,0,0,0,0,0.9142,0.9142,0,0.9149,0.9149,0.9149,0.9175,0.9175,0.9176,0.9176,0.9184,0.9183,0.9183,0,0,0,0,0,0,0,0,0,0,0,0,0,0.915,0.915,0.9142,0.9142,0.9142,0.9149,0.9149,0.9149,0.9175,0.9175,0.9176,0.9177,0.9184,0.9183,0.9183,0,0,0,0,0,0,0,0,0,0,0,0,0,0.9151,0.915,0.9142,0.9155,0.9157,0.9149,0.9149,0.9149,0.9175,0.9175,0.9176,0.9177,0.9184,0.9183,0.9183,0.9162,0,0,0.9181,0.9181,0,0,0,0,0,0,0,0,0.9151,0.9151,0.9153,0.9154,0.9156,0.9162,0.9155,0.9153,0.9174,0.9168,0.9176,0.9177,0.9176,0.9176,0.9175,0.9162,0.9163,0.9181,0.9181,0.9181,0.918,0,0,0,0,0,0,0,0.9151,0.915,0.9144,0.9153,0.9155,0.9161,0.9163,0.9155,0.9167,0.9168,0.917,0.9171,0.9176,0.9176,0.9176,0.9163,0.9181,0.9181,0.918,0.918,0.9136,0.9135,0,0,0,0,0,0,0.9149,0.915,0.9144,0.9145,0.9155,0.9161,0.9162,0.9159,0.9167,0.9169,0.917,0.9172,0.9176,0.9176,0.9176,0.9154,0.9181,0.918,0.918,0.9137,0.9136,0.9135,0,0,0,0,0,0,0.9149,0.9148,0.9144,0.9148,0.9148,0.916,0.9156,0.9159,0.9158,0.9168,0.917,0.9167,0.9177,0.9177,0.9166,0.9154,0.918,0.9179,0.9138,0.9136,0.9135,0.9108,0,0,0,0,0,0,0.9149,0.9148,0.914,0.9148,0.9148,0.9133,0.9155,0.9158,0.9157,0.916,0.9166,0.9168,0.9178,0.9167,0.9165,0.9154,0.9179,0.9139,0.9137,0.9136,0.911,0.9106,0.9103,0,0,0,0,0,0.9149,0.9131,0.9139,0.9138,0.9138,0.9133,0.9133,0.9144,0.9156,0.9148,0.9155,0.9168,0.9156,0.9165,0.9164,0.9152,0.914,0.9138,0.9136,0.9112,0.9107,0.9103,0,0,0,0,0,0,0.9121,0.9132,0.9141,0.9125,0.9128,0.9137,0.9127,0.9138,0.9138,0.914,0.9155,0.9156,0.9143,0.9147,0.9157,0.9134,0.915,0.9148,0.9132,0.9128,0.9124,0.9123,0.9178,0,0,0,0,0,0.9113,0.9108,0.9118,0.9103,0.9104,0.9115,0.9113,0.9123,0.9126,0.9127,0.9133,0.9135,0.9133,0.913,0.9128,0.9111,0.9113,0.9103,0.9099,0.9096,0.9094,0.9087,0.9083,0.9128,0.9128,0.9128,0,0,0.9096,0.9102,0.9097,0.9097,0.91,0.9095,0.9116,0.9109,0.9106,0.9126,0.9116,0.9121,0.9125,0.9111,0.9106,0.9114,0.9082,0.9093,0.9091,0.909,0.9084,0.908,0.9076,0.9127,0.9127,0.9128,0,0,0.9063,0.9066,0.9055,0.9058,0.9063,0.9071,0.9068,0.9076,0.908,0.9071,0.9087,0.9083,0.9077,0.908,0.908,0.9051,0.9063,0.905,0.903,0.9023,0.902,0.9017,0.9007,0.9003,0.9048,0.9048,0.9047,0,0.9041,0.9034,0.9047,0.904,0.9041,0.9059,0.9049,0.9051,0.9054,0.9054,0.9064,0.9058,0.9062,0.905,0.9044,0.9043,0.9041,0.9049,0.9019,0.9016,0.9013,0.9005,0.9001,0.9046,0.9046,0.9046,0.9046,0,0.9008,0.9003,0.8993,0.8997,0.8996,0.8987,0.9,0.8998,0.9007,0.9015,0.9006,0.9012,0.9012,0.901,0.9019,0.9,0.9005,0.9016,0.9033,0.9007,0.8999,0.8996,0.9044,0.9044,0.9045,0.9045,0,0,0.8956,0.8969,0.8965,0.8968,0.8976,0.8972,0.8965,0.8966,0.8964,0.8966,0.8961,0.8957,0.8968,0.8969,0.8978,0.8972,0.895,0.8984,0.8985,0.8979,0.8931,0.8923,0.8919,0.8958,0.8957,0.8957,0.8931,0,0.8925,0.8913,0.8926,0.8912,0.8908,0.8927,0.8921,0.8925,0.8932,0.893,0.8938,0.8936,0.895,0.8951,0.8946,0.8954,0.8941,0.8956,0.8954,0.8954,0.8953,0.8915,0.8905,0.8881,0.8928,0.8928,0.8927,0,0.8888,0.889,0.8875,0.8885,0.8884,0.8878,0.8881,0.8879,0.8885,0.8891,0.8892,0.8904,0.8899,0.8915,0.8908,0.8917,0.8918,0.8922,0.8921,0.8922,0.8939,0.8915,0.8873,0.887,0.8922,0.8923,0.8923,0,0.8853,0.8852,0.8843,0.8845,0.8856,0.8852,0.8857,0.8863,0.8864,0.8866,0.8867,0.8868,0.8869,0.887,0.8883,0.8893,0.8875,0.8891,0.888,0.888,0.8875,0.8875,0.8834,0.8874,0.8875,0.8875,0.8875,0,0.8818,0.8809,0.8828,0.8823,0.8813,0.8829,0.8819,0.8826,0.8832,0.8829,0.8845,0.8842,0.8858,0.8857,0.8867,0.886,0.886,0.8866,0.8868,0.8864,0.8864,0.8865,0.8867,0.8874,0.8874,0.8874,0.8874,0,0.8777,0.879,0.8782,0.8794,0.8797,0.879,0.88,0.8796,0.8805,0.8801,0.8801,0.8815,0.8815,0.8828,0.883,0.8836,0.8826,0.8831,0.8824,0.8826,0.8814,0.8815,0.8772,0.8768,0.8811,0.881,0.881,0,0.8754,0.8748,0.876,0.8759,0.8763,0.8762,0.8763,0.8778,0.8778,0.8785,0.8781,0.8782,0.8784,0.8783,0.8793,0.8795,0.8801,0.8786,0.8802,0.8798,0.8802,0.8803,0.8803,0.8783,0.8782,0.8782,0.8781,0,0.8713,0.872,0.872,0.8724,0.8724,0.8727,0.8731,0.873,0.8747,0.8747,0.8747,0.8748,0.8751,0.8753,0.8757,0.8762,0.8775,0.8777,0.8774,0.877,0.8766,0.8769,0.8816,0.8777,0.8778,0.8778,0.8778,0.8778,0.8681,0.8677,0.8685,0.8685,0.869,0.8694,0.8692,0.8701,0.8702,0.8705,0.8715,0.8714,0.8721,0.8729,0.8733,0.8733,0.8741,0.8737,0.8736,0.8735,0.8733,0.8766,0.8734,0.8734,0.8734,0.8734,0.8734,0,0.8641,0.8648,0.8648,0.8654,0.8655,0.8667,0.8673,0.8673,0.8672,0.8678,0.868,0.8681,0.8683,0.8694,0.8697,0.8695,0.8701,0.8696,0.8696,0.8697,0.8726,0.8728,0.8691,0.8691,0.8691,0.8691,0.8691,0.8691,0.862,0.8614,0.8622,0.8619,0.8626,0.8626,0.8628,0.8632,0.8638,0.8638,0.864,0.8647,0.8656,0.866,0.8663,0.8666,0.8667,0.866,0.8665,0.8691,0.8695,0.8699,0.8701,0.8659,0.8659,0.8637,0.8637,0.8636]},{"header":{"parameterUnit":"m.s-1","parameterCategory":1,"la1":30.2991,"la2":30.254,"lo1":-89.0895,"lo2":-89.0444,"dy":0.0017,"dx":0.0017,"nx":28,"ny":28,"refTime":"2025-03-24T09:00:00:Z","depth":0,"parameterNumber":3,"parameterNumberName":"V-component_of_WINDS"},"data":[0,0,0,0,0,0,0,0,0,0,0,0,0,0,0,0,0,0,0,0,0,0,0,0,0,0,0,0,0,0,0,0,0,0,0,0,0,0,0,0,0,0,0,0,0,0,0,0,0,0,0,0,0,0,0,0,0,0,0.7691,0.769,0,0.7682,0.7682,0.7682,0.7689,0.769,0.769,0.769,0.7681,0.7681,0.768,0,0,0,0,0,0,0,0,0,0,0,0,0,0.7712,0.7711,0.7691,0.769,0.769,0.7682,0.7682,0.7682,0.7689,0.769,0.769,0.7691,0.7681,0.7681,0.768,0,0,0,0,0,0,0,0,0,0,0,0,0,0.7703,0.7711,0.7691,0.7693,0.7693,0.7682,0.7682,0.7682,0.7689,0.769,0.769,0.7691,0.7681,0.7681,0.768,0.7666,0,0,0.7677,0.7677,0,0,0,0,0,0,0,0,0.7703,0.7702,0.7693,0.7693,0.7693,0.7687,0.7686,0.7676,0.7689,0.7691,0.769,0.7691,0.7683,0.7682,0.7679,0.7665,0.7665,0.7677,0.7677,0.7677,0.7676,0,0,0,0,0,0,0,0.7704,0.7702,0.7687,0.7693,0.7693,0.7694,0.7693,0.7684,0.7684,0.7691,0.7691,0.769,0.7683,0.768,0.7679,0.7665,0.7677,0.7677,0.7676,0.7676,0.7636,0.7636,0,0,0,0,0,0,0.7704,0.7703,0.7687,0.7687,0.7699,0.7693,0.7693,0.7689,0.7684,0.7684,0.769,0.7691,0.7681,0.768,0.7679,0.766,0.7677,0.7676,0.7675,0.7637,0.7636,0.7636,0,0,0,0,0,0,0.7705,0.7703,0.7688,0.7695,0.7693,0.7693,0.7688,0.7688,0.7685,0.7684,0.7684,0.7687,0.7681,0.768,0.7668,0.766,0.7675,0.7675,0.7638,0.7637,0.7636,0.7624,0,0,0,0,0,0,0.7705,0.7703,0.7698,0.7695,0.7693,0.7678,0.7688,0.7688,0.7684,0.7685,0.7681,0.7681,0.7682,0.767,0.7668,0.7659,0.7674,0.7638,0.7637,0.7636,0.7625,0.7623,0.7621,0,0,0,0,0,0.7706,0.7695,0.7698,0.7696,0.7687,0.7678,0.7676,0.7678,0.7683,0.7678,0.7677,0.7681,0.7662,0.7668,0.7666,0.7658,0.7639,0.7638,0.7636,0.7626,0.7623,0.7621,0,0,0,0,0,0,0.7698,0.7695,0.7698,0.7686,0.7682,0.7679,0.7672,0.7675,0.767,0.7671,0.7673,0.7672,0.7659,0.7657,0.7665,0.7642,0.7651,0.7649,0.7644,0.7641,0.7639,0.764,0.7673,0,0,0,0,0,0.7694,0.7688,0.7686,0.7675,0.7673,0.7673,0.7669,0.767,0.7666,0.7665,0.7663,0.7658,0.7651,0.7646,0.764,0.7625,0.7624,0.7618,0.7616,0.7614,0.7612,0.7603,0.76,0.7631,0.7631,0.7631,0,0,0.7687,0.7685,0.7681,0.7673,0.767,0.7663,0.7671,0.7663,0.7657,0.7664,0.7652,0.765,0.7646,0.7632,0.7626,0.763,0.7603,0.7613,0.7611,0.761,0.7601,0.7598,0.7596,0.7631,0.7631,0.7631,0,0,0.7671,0.7669,0.7659,0.7656,0.7652,0.7651,0.7649,0.7645,0.7644,0.7633,0.7637,0.763,0.7618,0.7614,0.761,0.759,0.7593,0.7588,0.7577,0.7568,0.7565,0.7563,0.7554,0.7552,0.7587,0.7587,0.7587,0,0.7663,0.7652,0.7654,0.7645,0.7641,0.7646,0.7636,0.7632,0.7626,0.7623,0.7627,0.7611,0.7609,0.7593,0.7588,0.7586,0.7582,0.7588,0.7565,0.7563,0.7561,0.7553,0.755,0.7586,0.7586,0.7586,0.7586,0,0.7641,0.7633,0.7626,0.7619,0.7614,0.7605,0.7605,0.76,0.7601,0.76,0.7588,0.7584,0.7577,0.7573,0.7575,0.7558,0.756,0.7565,0.7574,0.7557,0.755,0.7547,0.7585,0.7585,0.7585,0.7585,0,0,0.7619,0.7613,0.761,0.7606,0.7601,0.7595,0.7585,0.7577,0.7572,0.7567,0.7558,0.7547,0.7551,0.7547,0.7548,0.754,0.7523,0.7546,0.7546,0.7541,0.7502,0.7497,0.7494,0.7525,0.7525,0.7524,0.7502,0,0.7601,0.7584,0.7585,0.7569,0.7561,0.7565,0.7556,0.7552,0.755,0.7543,0.7541,0.7533,0.754,0.7537,0.7529,0.7527,0.7515,0.7529,0.7516,0.7515,0.7516,0.749,0.7485,0.7464,0.7499,0.7498,0.7498,0,0.7578,0.7572,0.7554,0.7549,0.7546,0.7538,0.753,0.7523,0.7518,0.7517,0.7512,0.7514,0.7503,0.7512,0.7496,0.7505,0.75,0.7498,0.7497,0.7495,0.7505,0.7486,0.7458,0.7454,0.7494,0.7494,0.7494,0,0.7562,0.7549,0.7537,0.7534,0.7528,0.7522,0.7519,0.7514,0.7509,0.7502,0.7498,0.749,0.7485,0.7478,0.7478,0.7485,0.7461,0.7471,0.7459,0.7459,0.7453,0.7453,0.7422,0.7452,0.7452,0.7452,0.7452,0,0.7541,0.753,0.7529,0.7522,0.7509,0.751,0.7497,0.7495,0.749,0.7481,0.7485,0.7476,0.7477,0.7468,0.7467,0.7453,0.7451,0.7449,0.7449,0.7448,0.7448,0.7444,0.7445,0.7451,0.7451,0.7451,0.7452,0,0.752,0.752,0.7506,0.7501,0.75,0.7491,0.7486,0.7478,0.7477,0.7465,0.7463,0.746,0.745,0.7449,0.7437,0.7437,0.7419,0.7421,0.7421,0.7421,0.7409,0.7409,0.7373,0.7367,0.7402,0.7401,0.7401,0,0.7507,0.7498,0.7492,0.7486,0.7483,0.7474,0.7469,0.7469,0.7463,0.7455,0.7448,0.7438,0.743,0.7412,0.7409,0.74,0.7401,0.7388,0.7399,0.7398,0.7398,0.7398,0.7397,0.7386,0.7386,0.7385,0.7385,0,0.7482,0.7481,0.7474,0.7465,0.7458,0.7451,0.7445,0.744,0.744,0.7433,0.7422,0.7416,0.7403,0.7392,0.7382,0.7379,0.7381,0.7382,0.7378,0.7377,0.7376,0.7375,0.7414,0.7383,0.7383,0.7383,0.7383,0.7383,0.7463,0.7455,0.7449,0.744,0.7435,0.7429,0.7421,0.7418,0.7409,0.7399,0.74,0.7387,0.738,0.7368,0.7363,0.7353,0.7357,0.7352,0.7351,0.7349,0.7347,0.7379,0.7351,0.7351,0.7351,0.7351,0.7351,0,0.7437,0.7433,0.7425,0.7415,0.7408,0.7411,0.7404,0.7397,0.7386,0.738,0.7372,0.7358,0.7348,0.7343,0.7333,0.7325,0.7326,0.7322,0.7322,0.7321,0.7345,0.7348,0.7321,0.7321,0.7321,0.7321,0.7321,0.7321,0.7423,0.7409,0.7408,0.7391,0.7387,0.7375,0.737,0.7364,0.7359,0.7344,0.7335,0.7332,0.7326,0.7315,0.7305,0.7304,0.7299,0.7294,0.7293,0.7316,0.7319,0.7322,0.7325,0.7294,0.7294,0.727,0.7269,0.7269]}]]